Weather Roundup
Issued by NWS Chicago, IL

Home | Current Version | Previous Version | Text Only | Print | Product List | Glossary On
Versions: 1 2 3 4 5 6 7 8 9 10 11 12 13 14 15 16 17 18 19 20 21 22 23 24 25 26 27 28 29 30 31 32 33 34 35 36 37 38 39 40 41 42 43 44 45 46 47 48 49 50
000
NZUS59 KLOT 211306
HRRLOT

CHICAGO AREA WEATHER ROUNDUP
NATIONAL WEATHER SERVICE CHICAGO/ROMEOVILLE IL
700 AM CST SUN DEC 21 2014

NOTE: "FAIR" INDICATES FEW OR NO CLOUDS BELOW 12,000 FEET WITH NO
SIGNIFICANT WEATHER AND/OR OBSTRUCTIONS TO VISIBILITY.

* THESE STATIONS ARE NOT UNDER NWS QUALITY CONTROL. THEY ALSO MAY NOT
  REPORT WEATHER SUCH AS PRECIPITATION OR FOG.

ILZ005-006-012>014-019>023-211400-
NORTHEAST ILLINOIS

CITY           SKY/WX    TMP DP  RH WIND       PRES   REMARKS
OHARE          CLOUDY    32  27  81 S9        30.21R WCI  24
MIDWAY         CLOUDY    34  27  75 S9        30.23R WCI  27
AURORA         CLOUDY    33  27  78 SE10      30.20S HAZE    WCI  25
LANSING*       CLOUDY    32  27  82 S8        30.24S WCI  25
JOLIET*        CLOUDY    32  28  84 SE7       30.22S WCI  26
WAUKEGAN       CLOUDY    32  27  81 SW6       30.19S WCI  26
DUPAGE AIRPORT CLOUDY    32  28  85 S7        30.19S WCI  26
WHEELING       CLOUDY    33  27  78 S10       30.22S WCI  25
KANKAKEE*      CLOUDY    32  28  86 S8        30.25R WCI  25
MORRIS*        CLOUDY    32  31  94 S8        30.21S WCI  25
LEWIS AIRPORT* CLOUDY    32  28  86 S10       30.22S WCI  23
NORTHERLY IS     N/A     33  26  76 S8          N/A  WCI  26
$$

WIZ051-052-058>065-066-070>072-211400-
SOUTHEAST WISCONSIN

CITY           SKY/WX    TMP DP  RH WIND       PRES   REMARKS
MILWAUKEE      CLOUDY    32  26  78 S8        30.18F WCI  25
KENOSHA*       CLOUDY    32  27  81 S7        30.19S WCI  26
RACINE*        CLOUDY    33  27  78 S8        30.21R WCI  26
BURLINGTON     CLOUDY    30  28  90 S7        30.17F WCI  23
WAUKESHA       LGT SNOW  28  27  93 SE9       30.17F WCI  20
WEST BEND      CLOUDY    32  28  86 SE5       30.16S FOG     WCI  27
$$

INZ001>003-010>013-019-020-211400-
NORTHWEST INDIANA

CITY           SKY/WX    TMP DP  RH WIND       PRES   REMARKS
GARY*          CLOUDY    34  25  69 S8        30.24S WCI  27
MICHIGAN CITY* NOT AVBL
RENSSELAER*    NOT AVBL
VALPARAISO     CLOUDY    30  26  85 S8        30.25S WCI  22
$$

LMZ740>746-211400-
SOUTHERN LAKE MICHIGAN

STATION/POSITION TIME  SKY/WX   TEMP WIND        PRES    VSBY
                                AIR  DIR/SP/G
                 (UTC)          (F)  (DEG/KT/KT) (MB)    (MI)
HARRISON CRIB    1300            33  180/ 17/ 18   N/A
BURNHAM HARBOR   1300            33  200/  4/ 10   N/A
CALUMET HARBOR   1300            33  180/  7/ 11 1022.4R
BURNS HARBOR     NOT AVBL
MICHIGAN CITY    NOT AVBL
$$

ABBREVIATIONS USED IN REMARKS
   TC - TEMPERATURE IN CELSIUS
  WCI - WIND CHILL INDEX
   HX - HEAT INDEX
  VSB - VISIBILITY
$$


USA.gov is the U.S. government's official web portal to all federal, state and local government web resources and services.